Location: Newark
(49.5647°N, 8.2922°E)
Time: 18:03:43
(UTC+00:00)

Transit 2A - Pass Details

Date: 20 February 2020
Orbit: 597 x 962 km, 66.7° (Epoch: 03 April)

Event Time Altitude Azimuth Distance (km) Brightness Sun altitude
Rises 20:19:32 0° 326° (NW) 3,014 9.9 -33.4°
Reaches altitude 10° 20:21:55 10° 335° (NNW) 2,147 8.8 -33.8°
Enters shadow 20:23:31 20° 347° (NNW) 1,628 8.0 -34.0°
Maximum altitude 20:26:28 37° 43° (NE) 1,134 - -34.4°
Drops below altitude 10° 20:31:26 10° 111° (ESE) 2,358 - -35.2°
Sets 20:34:09 0° 119° (ESE) 3,350 - -35.5°
